Flag Weather past 2 weeks in Rainy River, Ontario, Canada

Now
37 °F

Mostly cloudy.


Feels Like: 30 °F
Forecast: 28 / 38 °F
Wind: 10 mph from Northwest

Location: Baudette International Airport

Current Time: Oct 30, 2014 at 9:42:05 AM

Latest Report: Oct 30, 2014 at 8:53 AM


Visibility: 10 mi

Pressure: 30.15 "Hg

Humidity: 86%

Dew point: 33 °F

Location of Rainy RiverLocation

Historic Weather in Rainy River — Graph

°F

Rainy River temperature yesterday

Maximum temperature yesterday: 37 °F (at 1:53 PM)
Minimum temperature yesterday: 34 °F (at 5:53 AM)
Average temperature yesterday: 35 °F

Past Weeks' High & Low Weather Summary

 TemperatureHumidityPressure
High72 °F (Oct 24, 3:53 PM)97% (Oct 28, 1:53 AM)30.27 "Hg (Oct 28, 1:53 AM)
Low28 °F (Oct 26, 6:53 AM)32% (Oct 24, 6:53 PM)29.46 "Hg (Oct 16, 2:53 PM)
Average46 °F71%29.89 "Hg
* Reported Oct 15 7:53 AM — Oct 30 7:53 AM, Rainy River, Weather by CustomWeather, © 2014

Note: Actual official high and low records may vary slightly from our data, if they occured in-between our weather recording intervals... More about our weather records

Advertising

Rainy River weather history for previous 24 hours

 ConditionsComfort  
Time TempWeatherWind HumidityBarometerVisibility
7:53 AM
Oct 30
35 °FMostly cloudy.5 mph92%30.13 "Hg10 mi
6:53 AM35 °FOvercast.3 mph88%30.11 "Hg10 mi
6:03 AM34 °FLight rain. Overcast.5 mph85%30.07 "Hg10 mi
5:53 AM34 °FOvercast.3 mph85%30.11 "Hg10 mi
4:53 AM34 °FMostly cloudy.3 mph85%30.10 "Hg10 mi
3:53 AM34 °FOvercast.No wind88%30.09 "Hg10 mi
2:53 AM33 °FOvercast.No wind92%30.09 "Hg10 mi
1:53 AM34 °FOvercast.No wind88%30.09 "Hg10 mi
12:53 AM34 °FOvercast.3 mph92%30.07 "Hg10 mi
11:53 PM
Oct 29
35 °FMostly cloudy.No wind88%30.07 "Hg10 mi
10:53 PM35 °FOvercast.3 mph88%30.09 "Hg10 mi
9:53 PM35 °FOvercast.3 mph88%30.09 "Hg10 mi
8:53 PM36 °FOvercast.7 mph85%30.08 "Hg10 mi
7:53 PM36 °FMostly cloudy.6 mph89%30.08 "Hg8 mi
6:53 PM36 °FOvercast.5 mph89%30.07 "Hg10 mi
5:53 PM36 °FOvercast.5 mph89%30.07 "Hg10 mi
4:53 PM37 °FLow clouds.6 mph86%30.08 "Hg10 mi
3:53 PM37 °FOvercast.7 mph86%30.09 "Hg10 mi
2:53 PM37 °FOvercast.8 mph86%30.09 "Hg10 mi
1:53 PM37 °FOvercast.6 mph82%30.10 "Hg10 mi
12:53 PM36 °FOvercast.5 mph89%30.11 "Hg10 mi
11:53 AM35 °FLow clouds.7 mph92%30.12 "Hg9 mi
10:53 AM35 °FLow clouds.N/A92%30.11 "Hg10 mi
9:53 AM34 °FLow clouds.5 mph97%30.10 "Hg10 mi
Weather by CustomWeather, © 2014

See weather overviewHow to use our weather pages